When you browse on this site, cookies collect data to enhance your experience and personalize the content and advertising you see.
Visit our Privacy Policy to learn more. By continuing to use the site, you agree to this use of cookies and data.
  • In Latvia
  • List of Countries
  • For 7 days
  • Water Temperature
  • Weather Map
  • Weather Widgets
  • user-avatar
    Login

    Hourly Weather Bialogorne

    Today, 19 February, Wednesday

    Time Temperature Precipitation Wind Pressure Humidity
    00:00 +2°C° 0 mm 5 mps 746 mmHg 72%
    01:00 +1°C° 0 mm 5 mps 746 mmHg 72%
    02:00 +1°C° 0 mm 5 mps 746 mmHg 75%
    03:00 +1°C° 0 mm 5 mps 745 mmHg 77%
    04:00 0°C° 0 mm 5 mps 745 mmHg 80%
    05:00 0°C° 0 mm 5 mps 745 mmHg 82%
    06:00 0°C° 0 mm 5 mps 744 mmHg 83%
    07:00 0°C° 0 mm 5 mps 744 mmHg 84%
    08:00 +1°C° 0 mm 5 mps 744 mmHg 80%
    09:00 +2°C° 0 mm 5 mps 744 mmHg 75%
    10:00 +3°C° 0 mm 6 mps 744 mmHg 71%
    11:00 +3°C° 0 mm 6 mps 743 mmHg 68%
    12:00 +4°C° 0 mm 6 mps 742 mmHg 65%
    13:00 +5°C° 0 mm 6 mps 742 mmHg 62%
    14:00 +6°C° 0 mm 5 mps 741 mmHg 62%
    15:00 +6°C° 0 mm 4 mps 741 mmHg 62%
    16:00 +7°C° 0 mm 3 mps 741 mmHg 61%
    17:00 +5°C° 0 mm 4 mps 741 mmHg 68%
    18:00 +3°C° 0 mm 5 mps 741 mmHg 75%
    19:00 +3°C° 0 mm 5 mps 741 mmHg 82%
    20:00 +2°C° 0.2 mm 5 mps 741 mmHg 82%
    21:00 +2°C° 0.2 mm 6 mps 741 mmHg 82%
    22:00 +2°C° 0.2 mm 6 mps 742 mmHg 82%
    23:00 +1°C° 0 mm 6 mps 742 mmHg 81%

    Tomorrow, 20 February, Thursday

    Time Temperature Precipitation Wind Pressure Humidity
    00:00 +1°C° 0 mm 6 mps 743 mmHg 80%
    01:00 +1°C° 0 mm 5 mps 743 mmHg 80%
    02:00 +1°C° 0 mm 5 mps 743 mmHg 81%
    03:00 +1°C° 0 mm 4 mps 744 mmHg 83%
    04:00 +1°C° 0 mm 4 mps 744 mmHg 85%
    05:00 0°C° 0.6 mm 4 mps 744 mmHg 88%
    06:00 0°C° 0.6 mm 4 mps 745 mmHg 90%
    07:00 0°C° 0.6 mm 4 mps 745 mmHg 93%
    08:00 0°C° 0.2 mm 4 mps 746 mmHg 89%
    09:00 +1°C° 0.2 mm 4 mps 746 mmHg 86%
    10:00 +1°C° 0.2 mm 4 mps 746 mmHg 82%
    11:00 +3°C° 0.1 mm 4 mps 747 mmHg 78%
    12:00 +3°C° 0.1 mm 3 mps 747 mmHg 73%
    13:00 +4°C° 0.1 mm 3 mps 747 mmHg 69%
    14:00 +4°C° 0 mm 3 mps 747 mmHg 68%
    15:00 +4°C° 0 mm 2 mps 747 mmHg 67%
    16:00 +4°C° 0 mm 2 mps 747 mmHg 66%
    17:00 +4°C° 0 mm 2 mps 747 mmHg 69%
    18:00 +3°C° 0 mm 2 mps 747 mmHg 72%
    19:00 +3°C° 0 mm 2 mps 747 mmHg 75%
    20:00 +1°C° 0 mm 3 mps 747 mmHg 77%
    21:00 +1°C° 0 mm 3 mps 746 mmHg 79%
    22:00 0°C° 0 mm 4 mps 746 mmHg 81%
    23:00 -1°C° 0 mm 4 mps 745 mmHg 80%

    Day after tomorrow, 21 February, Friday

    Time Temperature Precipitation Wind Pressure Humidity
    00:00 -1°C° 0 mm 5 mps 745 mmHg 79%
    01:00 -1°C° 0 mm 5 mps 745 mmHg 78%
    02:00 -2°C° 0 mm 6 mps 744 mmHg 79%
    03:00 -2°C° 0 mm 7 mps 743 mmHg 80%
    04:00 -2°C° 0 mm 7 mps 742 mmHg 81%
    05:00 -1°C° 0.2 mm 7 mps 742 mmHg 85%
    06:00 -1°C° 0.2 mm 7 mps 742 mmHg 89%
    07:00 0°C° 0.2 mm 7 mps 741 mmHg 93%
    14:00 +2°C° 0.1 mm 9 mps 746 mmHg 64%
    15:00 +1°C° 0.1 mm 8 mps 747 mmHg 66%
    16:00 +2°C° 0.1 mm 7 mps 747 mmHg 68%
    17:00 +2°C° 0 mm 7 mps 748 mmHg 70%
    18:00 +1°C° 0 mm 6 mps 749 mmHg 72%
    19:00 +1°C° 0 mm 5 mps 749 mmHg 75%
    20:00 0°C° 0 mm 5 mps 750 mmHg 77%
    21:00 0°C° 0 mm 5 mps 750 mmHg 79%
    22:00 0°C° 0 mm 5 mps 750 mmHg 81%
    23:00 -1°C° 0 mm 4 mps 750 mmHg 82%

    22 February, Saturday

    Time Temperature Precipitation Wind Pressure Humidity
    00:00 -1°C° 0 mm 4 mps 750 mmHg 84%
    01:00 -1°C° 0 mm 4 mps 751 mmHg 85%
    02:00 -1°C° 0 mm 4 mps 750 mmHg 85%
    03:00 -2°C° 0 mm 4 mps 750 mmHg 86%
    04:00 -2°C° 0 mm 4 mps 750 mmHg 86%
    05:00 -2°C° 0 mm 5 mps 750 mmHg 84%
    06:00 -1°C° 0 mm 5 mps 750 mmHg 82%
    07:00 -1°C° 0 mm 5 mps 750 mmHg 80%
    08:00 -1°C° 0 mm 6 mps 749 mmHg 78%
    09:00 +1°C° 0 mm 6 mps 748 mmHg 75%
    10:00 0°C° 0 mm 7 mps 748 mmHg 73%
    11:00 +2°C° 0 mm 7 mps 747 mmHg 67%
    12:00 +2°C° 0 mm 8 mps 747 mmHg 61%
    13:00 +4°C° 0 mm 8 mps 746 mmHg 56%
    14:00 +4°C° 0 mm 8 mps 745 mmHg 55%
    15:00 +5°C° 0 mm 7 mps 745 mmHg 55%
    16:00 +5°C° 0 mm 7 mps 744 mmHg 55%
    17:00 +5°C° 0 mm 7 mps 744 mmHg 55%
    18:00 +5°C° 0 mm 8 mps 743 mmHg 55%
    19:00 +5°C° 0 mm 8 mps 743 mmHg 54%
    20:00 +5°C° 0 mm 8 mps 743 mmHg 55%
    21:00 +5°C° 0 mm 9 mps 743 mmHg 57%
    22:00 +5°C° 0 mm 9 mps 742 mmHg 58%
    23:00 +5°C° 0 mm 9 mps 742 mmHg 62%

    23 February, Sunday

    Time Temperature Precipitation Wind Pressure Humidity
    00:00 +5°C° 0 mm 9 mps 742 mmHg 66%
    01:00 +5°C° 0 mm 9 mps 742 mmHg 70%
    02:00 +4°C° 0.4 mm 8 mps 742 mmHg 74%
    03:00 +4°C° 0.4 mm 8 mps 742 mmHg 78%
    04:00 +4°C° 0.4 mm 8 mps 742 mmHg 82%
    05:00 +4°C° 0.1 mm 8 mps 742 mmHg 79%
    06:00 +4°C° 0.1 mm 8 mps 742 mmHg 76%
    07:00 +4°C° 0.1 mm 8 mps 742 mmHg 73%
    08:00 +4°C° 0 mm 8 mps 742 mmHg 68%
    09:00 +3°C° 0 mm 9 mps 742 mmHg 64%
    10:00 +5°C° 0 mm 9 mps 742 mmHg 60%
    11:00 +5°C° 0 mm 9 mps 742 mmHg 59%
    12:00 +5°C° 0 mm 8 mps 742 mmHg 59%
    13:00 +5°C° 0 mm 8 mps 742 mmHg 59%
    14:00 +5°C° 0.1 mm 8 mps 741 mmHg 67%
    15:00 +4°C° 0.1 mm 7 mps 740 mmHg 76%
    16:00 +3°C° 0.1 mm 7 mps 740 mmHg 84%
    17:00 +3°C° 0.2 mm 6 mps 739 mmHg 85%
    18:00 +3°C° 0.2 mm 5 mps 738 mmHg 86%
    19:00 +3°C° 0.2 mm 5 mps 736 mmHg 87%
    20:00 +4°C° 1.7 mm 4 mps 735 mmHg 90%
    21:00 +4°C° 1.7 mm 3 mps 733 mmHg 93%
    22:00 +5°C° 1.7 mm 2 mps 731 mmHg 95%
    23:00 +4°C° 1 mm 4 mps 731 mmHg 94%

    24 February, Monday

    Time Temperature Precipitation Wind Pressure Humidity
    00:00 +3°C° 1 mm 6 mps 731 mmHg 92%
    01:00 +2°C° 1 mm 8 mps 730 mmHg 90%
    02:00 +1°C° 0.7 mm 8 mps 732 mmHg 91%
    03:00 0°C° 0.7 mm 8 mps 733 mmHg 93%
    04:00 -2°C° 0.7 mm 7 mps 735 mmHg 94%
    05:00 -1°C° 0.4 mm 8 mps 736 mmHg 87%
    06:00 -1°C° 0.4 mm 9 mps 738 mmHg 81%
    07:00 -2°C° 0.4 mm 10 mps 739 mmHg 74%
    08:00 -2°C° 0.1 mm 11 mps 740 mmHg 75%
    09:00 -1°C° 0.1 mm 11 mps 741 mmHg 75%
    10:00 -1°C° 0.1 mm 11 mps 742 mmHg 75%
    11:00 +1°C° 0 mm 11 mps 743 mmHg 71%
    12:00 +1°C° 0 mm 11 mps 743 mmHg 66%
    13:00 +2°C° 0 mm 11 mps 744 mmHg 62%
    14:00 +2°C° 0 mm 10 mps 745 mmHg 59%
    15:00 +2°C° 0 mm 9 mps 745 mmHg 57%
    16:00 +4°C° 0 mm 8 mps 746 mmHg 54%
    17:00 +3°C° 0 mm 7 mps 747 mmHg 58%
    18:00 +2°C° 0 mm 6 mps 747 mmHg 62%
    19:00 +1°C° 0 mm 5 mps 748 mmHg 66%
    20:00 +1°C° 0 mm 5 mps 748 mmHg 70%
    21:00 0°C° 0 mm 4 mps 748 mmHg 74%
    22:00 0°C° 0 mm 4 mps 749 mmHg 77%
    23:00 -1°C° 0 mm 4 mps 748 mmHg 80%
    Show more